Overview Statistics Trail Chart Weather Telemetry Raw packets
 

This is the latest recevied weather packets stored in our database for station/object OK2JV-13. If no packets are shown the sender has not sent any weather packets the latest 10 day(s).

<< 32 33 34 35 36 37 38 >>
Time Temp. Humidity Pressure Rain* Wind** Luminosity Snow
1787973971 12.78° C 93% 1011.9 hPa - - - -
1787973367 12.78° C 92% 1012.3 hPa - - - -
1787972763 12.78° C 92% 1012.3 hPa - - - -
1787972159 12.78° C 91% 1013 hPa - - - -
1787971555 12.78° C 91% 1012.9 hPa - - - -
1787970952 13.33° C 90% 1013.2 hPa - - - -
1787970348 13.33° C 90% 1013.3 hPa - - - -
1787969744 13.89° C 92% 1013 hPa - - - -
1787969140 15° C 96% 1013 hPa - - - -
1787968536 15° C 96% 1012.3 hPa - - - -
1787967933 15° C 94% 1012.1 hPa - - - -
1787967330 15° C 93% 1011.9 hPa - - - -
1787966724 15° C 93% 1012 hPa - - - -
1787966120 15° C 93% 1012 hPa - - - -
1787965518 15° C 93% 1011.9 hPa - - - -
1787964912 14.44° C 92% 1011.8 hPa - - - -
1787964316 14.44° C 91% 1011.9 hPa - - - -
1787963705 14.44° C 90% 1011.8 hPa - - - -
1787963099 14.44° C 89% 1012 hPa - - - -
1787962496 15° C 87% 1012.1 hPa - - - -
1787961892 15° C 85% 1011.9 hPa - - - -
1787961288 15° C 84% 1011.6 hPa - - - -
1787960684 15° C 83% 1011.5 hPa - - - -
1787960080 15.56° C 81% 1011.6 hPa - - - -
1787959476 16.11° C 80% 1011.8 hPa - - - -

* Rain since midnight (hover to see other rain measurements)
** Current wind speed in m/s (hover to see current wind gust speed)